Location: Cantaing
(50.1487°N, 3.1675°E)
Time: 18:15:58
(UTC+00:00)

ARIANE 6 FM1 Upper Stage - Visible Passes

Search period start: 13 March 2026 00:00
Search period end: 23 March 2026 00:00
Orbit: 523 x 607 km, 62.0° (Epoch: 12 March)

Date Brightness Start Highest point End Pass type
(mag) Time Alt. Az. Time Alt. Az. Time Alt. Az.
13 Mar 2.8 04:22:09 27° SSW 04:24:16 66° SE 04:28:16 10° NE visible
14 Mar 5.3 02:46:13 14° ESE 02:46:13 14° ESE 02:47:49 10° E visible
14 Mar 2.5 04:22:14 32° SW 04:24:02 90° NW 04:28:04 10° NE visible
15 Mar 5.0 02:46:13 18° E 02:46:13 18° E 02:48:10 10° ENE visible
15 Mar 2.6 04:22:13 34° WSW 04:23:50 67° NW 04:27:50 10° NE visible
16 Mar 4.7 02:46:08 23° E 02:46:08 23° E 02:48:17 10° ENE visible
16 Mar 2.9 04:22:08 32° W 04:23:38 50° NW 04:27:34 10° NE visible
17 Mar 4.5 02:45:59 27° E 02:45:59 27° E 02:48:14 10° ENE visible
17 Mar 3.3 04:21:58 28° W 04:23:29 39° NW 04:27:17 10° NE visible
18 Mar 4.3 02:45:46 31° ENE 02:45:46 31° ENE 02:48:06 10° NE visible
18 Mar 3.7 04:21:45 24° WNW 04:23:21 32° NNW 04:26:58 10° NE visible
19 Mar 4.2 02:45:31 34° NE 02:45:31 34° NE 02:47:54 10° NE visible
19 Mar 4.0 04:21:29 20° WNW 04:23:14 26° NNW 04:26:39 10° NNE visible
20 Mar 4.1 02:45:12 36° NE 02:45:12 36° NE 02:47:38 10° NE visible
20 Mar 4.3 04:21:11 16° WNW 04:23:08 23° NNW 04:26:21 10° NNE visible
21 Mar 4.0 02:44:51 35° NNE 02:44:51 35° NNE 02:47:20 10° NE visible
21 Mar 4.5 04:20:49 13° WNW 04:23:03 20° NNW 04:26:03 10° NNE visible
22 Mar 4.1 02:44:27 33° NNE 02:44:27 33° NNE 02:47:02 10° NE visible
22 Mar 4.7 04:20:26 11° NW 04:22:59 18° NNW 04:25:46 10° NNE visible
